Regional Weather Roundup
Issued by NWS Cleveland, OH

Home | Current Version | Previous Version | Graphics & Text | Print | Product List | Glossary On
Versions: 1 2 3 4 5 6 7 8 9 10 11 12 13 14 15 16 17 18 19 20 21 22 23 24 25 26 27 28 29 30 31 32 33 34 35 36 37 38 39 40 41 42 43 44 45 46 47 48 49 50
000
ASUS41 KCLE 200202
RWRCLE
OHIO REGIONAL WEATHER ROUNDUP
NATIONAL WEATHER SERVICE CLEVELAND, OH
1000 PM EDT SAT APR 19 2014

NOTE: "FAIR" INDICATES FEW OR NO CLOUDS BELOW 12,000 FEET WITH NO
SIGNIFICANT WEATHER AND/OR OBSTRUCTIONS TO VISIBILITY.

OHZ001>008-015>018-024>027-034-035-043-044-200300-
   NORTHWEST OHIO

CITY           SKY/WX    TMP DP  RH WIND       PRES   REMARKS
DEFIANCE       CLEAR     46  28  49 NE5       30.33F
FINDLAY        CLEAR     46  28  49 NE10      30.32R
TOLEDO EXPRESS CLEAR     42  28  57 E3        30.34F
TOLEDO EXEC    CLEAR     42  30  62 NE7       30.35F
LIMA           CLEAR     45  25  45 NE8       30.31R
$$

OHZ009>014-019>023-028>033-038-089-200300-
   NORTHEAST OHIO

CITY           SKY/WX    TMP DP  RH WIND       PRES   REMARKS
CLE-HOPKINS    CLEAR     44  34  67 N3        30.36R
CLE-LAKEFRONT  CLEAR     45  31  58 NE6       30.33S
CUY CO. ARPT   CLEAR     43  28  56 E7        30.34S
LORAIN-ELYRIA  CLEAR     42  29  59 E7        30.34R
ASHTABULA      PTCLDY    42  26  53 E6        30.34F
AKRON-CANTON   MOCLDY    50  24  35 NE6       30.31R
WOOSTER        PTCLDY    43  33  68 N9        30.31S
MANSFIELD      PTCLDY    44  29  55 N5        30.31S
YOUNGSTOWN     MOCLDY    44  30  57 N5        30.32S
$$

OHZ042-051>053-060>062-070>072-077>081-200300-
  SOUTHWEST OHIO

CITY           SKY/WX    TMP DP  RH WIND       PRES   REMARKS
CINC-COVINGTON PTCLDY    61  34  36 NE7       30.24S
CINC-LUNKEN    CLEAR     52  40  63 CALM      30.25S
HAMILTON       CLEAR     53  37  54 NE6       30.26S
DAYTON         PTCLDY    50  34  54 NE9       30.28S
WRIGHT-PAT AFB CLEAR     51  34  52 N7        30.27S
DAYTON GENERAL CLEAR     52  35  52 NE7       30.25S
WILMINGTON     PTCLDY    50  34  54 NE9       30.26S
$$

OHZ036-037-039>041-045>050-054>059-063>069-073>076-082>088-200300-
  CENTRAL AND SOUTHEAST OHIO

CITY           SKY/WX    TMP DP  RH WIND       PRES   REMARKS
COLUMBUS       PTCLDY    56  27  32 NE3       30.27S
OSU AIRPORT    PTCLDY    49  31  49 N9        30.28S
BOLTON FIELD   NOT AVBL
RICKENBACK AFB PTCLDY    53  26  34 NE8       30.26S
NEWARK         MOCLDY    55  23  28 NE3       30.27S
MARION         CLEAR     42  30  62 NE7       30.31S
LANCASTER      MOCLDY    50  32  50 NE7       30.27S
ZANESVILLE     MOCLDY    55  23  28 NE5       30.28R
NEW PHILLY     MOCLDY    51  28  41 CALM      30.30S
$$



USA.gov is the U.S. government's official web portal to all federal, state and local government web resources and services.